EN

Hourly Weather Kaprun

Today, 22 January, Friday

Time Temperature Precipitation Wind Pressure Humidity
00:00 -8°C° 0.1 mm 4 mps 586 mmHg 86%
01:00 -8°C° 0.1 mm 4 mps 585 mmHg 86%
02:00 -8°C° 0.2 mm 4 mps 585 mmHg 86%
03:00 -7°C° 0.2 mm 4 mps 584 mmHg 86%
04:00 -7°C° 0.2 mm 4 mps 584 mmHg 86%
05:00 -6°C° 0.2 mm 3 mps 584 mmHg 87%
06:00 -7°C° 0.2 mm 3 mps 584 mmHg 88%
07:00 -6°C° 0.2 mm 2 mps 584 mmHg 89%
08:00 -5°C° 0.2 mm 2 mps 584 mmHg 90%
09:00 -4°C° 0.2 mm 2 mps 584 mmHg 91%
10:00 -5°C° 0.2 mm 3 mps 584 mmHg 92%
11:00 -4°C° 0.1 mm 3 mps 584 mmHg 93%
12:00 -4°C° 0.1 mm 3 mps 584 mmHg 94%
13:00 -4°C° 0.1 mm 3 mps 584 mmHg 95%
14:00 -4°C° 0 mm 3 mps 583 mmHg 93%
15:00 -4°C° 0 mm 3 mps 582 mmHg 92%
16:00 -5°C° 0 mm 4 mps 582 mmHg 91%
17:00 -5°C° 0.1 mm 4 mps 581 mmHg 90%
18:00 -5°C° 0.1 mm 3 mps 581 mmHg 89%
19:00 -6°C° 0.1 mm 3 mps 580 mmHg 88%
20:00 -6°C° 0.6 mm 3 mps 580 mmHg 88%
21:00 -6°C° 0.6 mm 3 mps 579 mmHg 89%
22:00 -6°C° 0.6 mm 3 mps 578 mmHg 89%
23:00 -6°C° 1.7 mm 3 mps 578 mmHg 90%

Tomorrow, 23 January, Saturday

Time Temperature Precipitation Wind Pressure Humidity
00:00 -6°C° 1.7 mm 3 mps 578 mmHg 92%
01:00 -6°C° 1.7 mm 3 mps 577 mmHg 93%
02:00 -6°C° 0.3 mm 3 mps 577 mmHg 93%
03:00 -7°C° 0.3 mm 3 mps 577 mmHg 93%
04:00 -6°C° 0.3 mm 2 mps 577 mmHg 93%
05:00 -6°C° 1.1 mm 2 mps 578 mmHg 94%
06:00 -6°C° 1.1 mm 1 mps 578 mmHg 96%
07:00 -6°C° 1.1 mm 1 mps 579 mmHg 97%
08:00 -6°C° 1 mm 1 mps 579 mmHg 96%
09:00 -7°C° 1 mm 2 mps 579 mmHg 96%
10:00 -7°C° 1 mm 2 mps 579 mmHg 95%
11:00 -8°C° 0.3 mm 2 mps 579 mmHg 94%
12:00 -8°C° 0.3 mm 2 mps 579 mmHg 93%
13:00 -8°C° 0.3 mm 2 mps 579 mmHg 91%
14:00 -8°C° 0.2 mm 2 mps 579 mmHg 92%
15:00 -9°C° 0.2 mm 2 mps 579 mmHg 93%
16:00 -9°C° 0.2 mm 2 mps 578 mmHg 93%
17:00 -10°C° 0.1 mm 2 mps 578 mmHg 93%
18:00 -12°C° 0.1 mm 2 mps 578 mmHg 93%
19:00 -11°C° 0.1 mm 1 mps 577 mmHg 93%
20:00 -11°C° 0 mm 1 mps 577 mmHg 92%
21:00 -11°C° 0 mm 1 mps 577 mmHg 91%
22:00 -14°C° 0 mm 2 mps 577 mmHg 90%
23:00 -11°C° 0 mm 1 mps 578 mmHg 90%

Day after tomorrow, 24 January, Sunday

Time Temperature Precipitation Wind Pressure Humidity
00:00 -11°C° 0 mm 1 mps 578 mmHg 89%
01:00 -11°C° 0 mm 1 mps 578 mmHg 89%
02:00 -11°C° 0.1 mm 1 mps 578 mmHg 89%
03:00 -11°C° 0.1 mm 1 mps 578 mmHg 90%
04:00 -11°C° 0.1 mm 1 mps 578 mmHg 91%
05:00 -11°C° 0 mm 1 mps 578 mmHg 89%
06:00 -14°C° 0 mm 2 mps 578 mmHg 88%
07:00 -14°C° 0 mm 2 mps 578 mmHg 86%
08:00 -13°C° 0 mm 2 mps 579 mmHg 88%
09:00 -13°C° 0 mm 2 mps 580 mmHg 89%
10:00 -10°C° 0 mm 1 mps 580 mmHg 91%
11:00 -10°C° 0.1 mm 2 mps 580 mmHg 88%
12:00 -10°C° 0.1 mm 2 mps 581 mmHg 85%
13:00 -9°C° 0.1 mm 2 mps 581 mmHg 83%
14:00 -9°C° 0 mm 1 mps 580 mmHg 85%
15:00 -10°C° 0 mm 1 mps 580 mmHg 88%
16:00 -11°C° 0 mm 1 mps 580 mmHg 90%
17:00 -12°C° 0 mm 1 mps 579 mmHg 85%
18:00 -13°C° 0 mm 1 mps 579 mmHg 80%
19:00 -15°C° 0 mm 1 mps 579 mmHg 75%
20:00 -15°C° 0 mm 1 mps 579 mmHg 69%
21:00 -16°C° 0 mm 1 mps 578 mmHg 63%
22:00 -16°C° 0 mm 1 mps 578 mmHg 56%
23:00 -16°C° 0 mm 1 mps 578 mmHg 59%

25 January, Monday

Time Temperature Precipitation Wind Pressure Humidity
00:00 -16°C° 0 mm 1 mps 578 mmHg 61%
01:00 -18°C° 0 mm 2 mps 578 mmHg 63%
02:00 -18°C° 0 mm 2 mps 579 mmHg 69%
03:00 -18°C° 0 mm 2 mps 579 mmHg 76%
04:00 -17°C° 0 mm 2 mps 580 mmHg 82%
05:00 -17°C° 0 mm 2 mps 580 mmHg 81%
06:00 -16°C° 0 mm 2 mps 581 mmHg 79%
07:00 -14°C° 0 mm 1 mps 581 mmHg 78%
08:00 -13°C° 0.1 mm 1 mps 582 mmHg 82%
09:00 -12°C° 0.1 mm 1 mps 583 mmHg 86%
10:00 -13°C° 0.1 mm 2 mps 583 mmHg 90%
11:00 -13°C° 0.1 mm 2 mps 584 mmHg 88%
12:00 -12°C° 0.1 mm 2 mps 584 mmHg 86%
13:00 -12°C° 0.1 mm 2 mps 585 mmHg 84%
14:00 -12°C° 0.2 mm 2 mps 585 mmHg 86%
15:00 -12°C° 0.2 mm 2 mps 585 mmHg 89%
16:00 -13°C° 0.2 mm 2 mps 585 mmHg 92%
17:00 -14°C° 0.1 mm 2 mps 585 mmHg 92%
18:00 -15°C° 0.1 mm 2 mps 585 mmHg 92%
19:00 -15°C° 0.1 mm 1 mps 585 mmHg 92%
20:00 -14°C° 0 mm 1 mps 585 mmHg 90%
21:00 -16°C° 0 mm 2 mps 586 mmHg 88%
22:00 -16°C° 0 mm 2 mps 586 mmHg 86%
23:00 -13°C° 0.3 mm 1 mps 587 mmHg 88%

26 January, Tuesday

Time Temperature Precipitation Wind Pressure Humidity
00:00 -13°C° 0.3 mm 1 mps 587 mmHg 91%
01:00 -13°C° 0.3 mm 1 mps 587 mmHg 93%
02:00 -13°C° 0.2 mm 1 mps 587 mmHg 94%
03:00 -13°C° 0.2 mm 1 mps 587 mmHg 94%
04:00 -13°C° 0.2 mm 1 mps 587 mmHg 95%
05:00 -13°C° 0.2 mm 1 mps 588 mmHg 93%
06:00 -13°C° 0.2 mm 1 mps 588 mmHg 92%
07:00 -13°C° 0.2 mm 1 mps 588 mmHg 90%
08:00 -12°C° 0.3 mm 1 mps 588 mmHg 91%
09:00 -11°C° 0.3 mm 1 mps 589 mmHg 92%
10:00 -11°C° 0.3 mm 1 mps 589 mmHg 92%
11:00 -12°C° 0.4 mm 2 mps 590 mmHg 91%
12:00 -12°C° 0.4 mm 2 mps 590 mmHg 90%
13:00 -10°C° 0.4 mm 2 mps 590 mmHg 89%
14:00 -10°C° 0.5 mm 2 mps 590 mmHg 91%
15:00 -10°C° 0.5 mm 2 mps 590 mmHg 92%
16:00 -12°C° 0.5 mm 2 mps 590 mmHg 94%
17:00 -12°C° 0.4 mm 2 mps 590 mmHg 94%
18:00 -13°C° 0.4 mm 2 mps 590 mmHg 95%
19:00 -11°C° 0.4 mm 1 mps 591 mmHg 95%
20:00 -12°C° 0.1 mm 1 mps 590 mmHg 92%
21:00 -13°C° 0.1 mm 1 mps 590 mmHg 90%
22:00 -14°C° 0.1 mm 1 mps 589 mmHg 87%
23:00 -13°C° 0 mm 1 mps 589 mmHg 83%

27 January, Wednesday

Time Temperature Precipitation Wind Pressure Humidity
00:00 -13°C° 0 mm 1 mps 589 mmHg 79%
01:00 -12°C° 0 mm 1 mps 590 mmHg 74%
02:00 -14°C° 0.2 mm 2 mps 589 mmHg 80%
03:00 -13°C° 0.2 mm 2 mps 589 mmHg 85%
04:00 -13°C° 0.2 mm 2 mps 589 mmHg 91%
05:00 -12°C° 0.6 mm 2 mps 589 mmHg 92%
06:00 -12°C° 0.6 mm 2 mps 589 mmHg 93%
07:00 -10°C° 0.6 mm 2 mps 589 mmHg 95%
08:00 -9°C° 1.4 mm 2 mps 589 mmHg 95%
09:00 -8°C° 1.4 mm 2 mps 590 mmHg 95%
10:00 -8°C° 1.4 mm 3 mps 590 mmHg 95%
11:00 -8°C° 1.4 mm 3 mps 590 mmHg 95%
12:00 -8°C° 1.4 mm 3 mps 590 mmHg 95%
13:00 -7°C° 1.4 mm 3 mps 590 mmHg 94%
14:00 -7°C° 1.2 mm 3 mps 591 mmHg 95%
15:00 -8°C° 1.2 mm 3 mps 591 mmHg 95%
16:00 -8°C° 1.2 mm 3 mps 591 mmHg 95%
17:00 -9°C° 0.5 mm 3 mps 591 mmHg 95%
18:00 -10°C° 0.5 mm 3 mps 591 mmHg 94%
19:00 -10°C° 0.5 mm 3 mps 592 mmHg 94%
20:00 -10°C° 0.1 mm 2 mps 592 mmHg 94%
21:00 -10°C° 0.1 mm 2 mps 592 mmHg 94%
22:00 -12°C° 0.1 mm 2 mps 592 mmHg 94%
23:00 -12°C° 0 mm 2 mps 592 mmHg 91%
Show more

We Need Your Consent

Meteoprog and our Service Providers may store and access personal data such as cookies, device identifiers or other similar technologies on your device and process such data to personalise content and ads, as well as provide social media features and to analyse the traffic.

  • Store and/or access information on your device

    Cookies, device identifiers or other information can be stored or accessed on your device for the purposes indicated above.

  • Personalised ads and content, ad and content measurement, audience insights, and products development

    Ads and content can be personalised based on a profile. More data can be added to better personalise ads and content. Ad and content performance can be measured. Insights about the audience who saw the ads and content can be derived. Such data can be used to develop or improve user’s experience, systems and software.

By clicking ‘I Agree’ you will allow the use of indicated cookies, device identifiers, web beacons or other similar technologies. Your settings can be changed in the browser on your device.

For certain purposes, legitimate interests may be relied on, rather than consent. You can read more about this in our Privacy and Cookie Policy.